M0OAB-1 Weather Reports


time (UTC)temp
F
wind
direction
speed
knots
gust
knots
rain 1hr
in
rain 24hr
in
rain mn
in
humidity
%
barometer
mb
20260506051403 45 340 4.3 6.1 0.00 0.00 0.00 84 998.0
20260506051004 45 335 3.5 5.2 0.00 0.00 0.00 83 997.9
20260506050804 45 345 4.3 5.2 0.00 0.00 0.00 83 998.0
20260506050603 45 354 4.3 5.2 0.00 0.00 0.00 83 998.0
20260506050404 45 355 4.3 5.2 0.00 0.00 0.00 83 998.1
20260506045003 45 321 4.3 7.0 0.00 0.00 0.00 82 998.0
20260506044804 46 327 4.3 7.0 0.00 0.00 0.00 77 998.0
20260506044404 46 329 3.5 5.2 0.00 0.00 0.00 77 998.0
20260506044204 46 336 3.5 7.0 0.00 0.00 0.00 77 997.9
20260506044004 46 339 4.3 7.0 0.00 0.00 0.00 77 998.0
20260506043804 46 326 4.3 7.0 0.00 0.00 0.00 77 998.0
20260506043603 46 331 5.2 7.0 0.00 0.00 0.00 77 998.0
20260506043403 46 338 5.2 7.0 0.00 0.00 0.00 77 998.0
20260506043204 46 337 5.2 7.0 0.00 0.00 0.00 77 998.0
20260506043004 46 343 5.2 7.0 0.00 0.00 0.00 77 998.0
20260506042803 46 348 5.2 7.0 0.00 0.00 0.00 77 998.0
20260506042603 46 347 4.3 7.0 0.00 0.00 0.00 77 998.0
20260506042404 46 347 4.3 7.0 0.00 0.00 0.00 77 997.9
20260506042204 46 345 5.2 8.7 0.00 0.00 0.00 76 997.9
20260506042003 46 338 5.2 8.7 0.00 0.00 0.00 76 998.0
20260506041803 46 340 6.1 9.6 0.00 0.00 0.00 76 998.0
20260506041604 46 344 6.1 9.6 0.00 0.00 0.00 76 998.2
20260506041404 46 341 6.1 9.6 0.00 0.00 0.00 76 998.2
20260506041203 46 342 5.2 9.6 0.00 0.00 0.00 76 998.2
20260506041003 46 349 5.2 9.6 0.00 0.00 0.00 76 998.1
20260506040804 47 345 4.3 6.1 0.00 0.00 0.00 76 998.2
20260506040604 47 341 4.3 5.2 0.00 0.00 0.00 76 997.9
20260506040403 47 347 4.3 7.0 0.00 0.00 0.00 76 997.9
20260506040203 47 346 5.2 7.0 0.00 0.00 0.00 76 997.9
20260506040004 47 346 5.2 7.0 0.00 0.00 0.00 76 998.0
20260506035804 47 345 5.2 7.0 0.00 0.00 0.00 76 998.1
20260506035603 47 348 6.1 7.0 0.00 0.00 0.00 76 998.0
20260506035403 47 339 6.1 7.8 0.00 0.00 0.00 76 998.2
20260506035204 47 342 6.1 7.8 0.00 0.00 0.00 76 998.2
20260506035004 47 335 5.2 7.8 0.00 0.00 0.00 76 998.1
20260506034803 47 341 5.2 7.8 0.00 0.00 0.00 76 997.9
20260506034404 47 345 4.3 7.8 0.00 0.00 0.00 76 998.0
20260506034204 47 341 4.3 6.1 0.00 0.00 0.00 77 998.0
20260506034004 47 342 4.3 6.1 0.00 0.00 0.00 77 998.1
20260506033603 47 342 5.2 7.0 0.00 0.00 0.00 76 998.0
20260506033404 47 341 5.2 7.0 0.00 0.00 0.00 76 998.1
20260506033204 47 336 5.2 7.0 0.00 0.00 0.00 76 998.0
20260506033004 47 336 4.3 7.0 0.00 0.00 0.00 76 998.2
20260506032603 47 336 4.3 6.1 0.00 0.00 0.00 76 998.0
20260506032404 47 336 4.3 6.1 0.00 0.00 0.00 76 998.0
20260506032204 48 342 3.5 6.1 0.00 0.00 0.00 76 998.0
20260506032004 48 345 3.5 6.1 0.00 0.00 0.00 76 998.0
20260506031803 48 342 3.5 3.5 0.00 0.00 0.00 76 998.0
20260506031603 48 343 3.5 4.3 0.00 0.00 0.00 76 998.1
20260506031403 48 341 3.5 4.3 0.00 0.00 0.00 76 998.1
20260506031204 48 338 3.5 4.3 0.00 0.00 0.00 75 998.2
20260506031004 48 343 3.5 4.3 0.00 0.00 0.00 75 998.1
20260506030404 48 331 3.5 4.3 0.00 0.00 0.00 75 998.1
20260506030004 48 337 4.3 7.0 0.00 0.00 0.00 75 998.2
20260506025803 48 340 4.3 7.0 0.00 0.00 0.00 75 998.3
20260506025604 48 339 5.2 7.0 0.00 0.00 0.00 75 998.2
20260506025404 48 344 5.2 7.0 0.00 0.00 0.00 75 998.3
20260506025203 48 345 5.2 7.0 0.00 0.00 0.00 75 998.2
20260506025003 48 339 5.2 7.0 0.00 0.00 0.00 75 998.4
20260506024804 48 344 5.2 7.8 0.00 0.00 0.00 75 998.4
20260506024604 48 343 6.1 7.8 0.00 0.00 0.00 75 998.3
20260506024403 48 336 6.1 7.8 0.00 0.00 0.00 74 998.3
20260506024203 48 330 6.1 7.8 0.00 0.00 0.00 74 998.5
20260506024003 48 332 6.1 7.8 0.00 0.00 0.00 74 998.4
20260506023804 48 331 5.2 7.0 0.00 0.00 0.00 74 998.4
20260506023604 48 325 5.2 6.1 0.00 0.00 0.00 74 998.4
20260506023403 48 333 5.2 8.7 0.00 0.00 0.00 74 998.4
20260506023203 48 342 5.2 8.7 0.00 0.00 0.00 74 998.4
20260506023004 48 342 5.2 8.7 0.00 0.00 0.00 74 998.4
20260506022804 48 338 5.2 8.7 0.00 0.00 0.00 74 998.4
20260506022403 49 347 4.3 7.0 0.00 0.00 0.00 74 998.4
20260506022004 49 344 4.3 7.0 0.00 0.00 0.00 74 998.5
20260506021804 49 330 4.3 7.0 0.00 0.00 0.00 73 998.6
20260506021603 49 323 4.3 7.0 0.00 0.00 0.00 73 998.6
20260506021404 49 324 4.3 7.0 0.00 0.00 0.00 73 998.5
20260506021004 49 325 4.3 7.0 0.00 0.00 0.00 73 998.4
20260506020803 49 86 4.3 7.0 0.00 0.00 0.00 73 998.5
20260506020604 49 24 5.2 8.7 0.00 0.00 0.00 73 998.5
20260506020419 49 351 5.2 8.7 0.00 0.00 0.00 73 998.5
20260506020204 49 353 6.1 8.7 0.00 0.00 0.00 73 998.5
20260506020004 49 352 6.1 8.7 0.00 0.00 0.00 73 998.5
20260506015803 49 354 6.1 8.7 0.00 0.00 0.00 73 998.6
20260506015603 49 2 5.2 8.7 0.00 0.00 0.00 73 998.6
20260506015004 49 126 2.6 4.3 0.00 0.00 0.00 73 998.6
20260506014804 49 271 2.6 3.5 0.00 0.00 0.00 74 998.6
20260506014603 49 324 3.5 7.0 0.00 0.00 0.00 74 998.6
20260506014403 49 336 4.3 7.0 0.00 0.00 0.00 74 998.7
20260506014203 49 344 4.3 7.0 0.00 0.00 0.00 74 998.7
20260506013604 49 327 4.3 7.0 0.00 0.00 0.00 74 998.8
20260506013204 49 311 4.3 7.0 0.00 0.00 0.00 75 998.5
20260506012803 49 312 4.3 7.0 0.00 0.00 0.00 74 998.8
20260506012603 49 313 5.2 7.0 0.00 0.00 0.00 74 998.7
20260506012204 49 341 4.3 7.0 0.00 0.00 0.00 74 998.7
20260506011804 49 346 5.2 7.0 0.00 0.00 0.00 75 998.6
20260506011603 49 348 6.1 9.6 0.00 0.00 0.00 75 998.7
20260506011403 49 344 6.1 9.6 0.00 0.00 0.00 75 998.8
20260506011204 49 341 7.0 9.6 0.00 0.00 0.00 75 998.7
20260506010803 49 337 6.1 9.6 0.00 0.00 0.00 75 998.7
20260506010403 50 315 5.2 7.0 0.00 0.00 0.00 76 998.8
20260506010203 50 322 6.1 8.7 0.00 0.00 0.00 76 998.8
20260506010004 50 315 7.0 8.7 0.00 0.00 0.00 76 998.7
20260506005803 50 317 7.0 8.7 0.00 0.00 0.00 76 998.8
20260506005603 50 323 6.1 8.7 0.00 0.00 0.00 76 998.7
20260506005404 50 328 6.1 8.7 0.00 0.00 0.00 77 998.8
20260506005004 50 312 5.2 7.0 0.00 0.00 0.00 77 998.8
20260506004604 50 325 5.2 7.8 0.00 0.00 0.00 78 998.6
20260506004404 50 333 5.2 7.8 0.00 0.00 0.00 78 998.8
20260506004003 50 346 6.1 7.8 0.00 0.00 0.00 78 998.7
20260506003604 50 340 5.2 6.1 0.00 0.00 0.00 78 998.8
20260506003403 50 342 5.2 6.1 0.00 0.00 0.00 78 998.8
20260506003203 50 340 4.3 6.1 0.00 0.00 0.00 78 998.8
20260506003003 50 339 4.3 6.1 0.00 0.00 0.00 78 998.7
20260506002804 50 338 4.3 7.0 0.00 0.00 0.00 78 998.8
20260506002603 50 349 4.3 7.0 0.00 0.00 0.00 78 998.8
20260506002403 50 340 5.2 7.0 0.00 0.00 0.00 78 998.8
20260506002204 50 333 4.3 7.0 0.00 0.00 0.00 78 998.8
20260506002004 50 330 4.3 7.0 0.00 0.00 0.00 77 998.9
20260506001803 50 329 4.3 7.0 0.00 0.00 0.00 77 998.9
20260506001603 50 338 3.5 7.0 0.00 0.00 0.00 77 998.9
20260506001403 50 341 3.5 6.1 0.00 0.00 0.00 77 998.9
20260506001004 50 342 4.3 7.0 0.00 0.00 0.00 77 998.8
20260506000804 50 345 4.3 7.0 0.00 0.00 0.00 77 998.8
20260506000603 50 339 5.2 7.0 0.00 0.00 0.00 76 998.9
20260506000403 50 342 5.2 7.0 0.00 0.00 0.00 76 999.0
20260506000205 50 341 5.2 7.0 0.00 0.00 0.00 76 999.0
20260506000004 50 340 5.2 7.0 0.00 0.00 0.00 76 999.1
20260505235803 50 323 4.3 7.0 0.00 0.00 0.00 76 998.9
20260505235403 50 304 3.5 6.1 0.00 0.00 0.00 76 999.0
20260505235204 50 294 2.6 5.2 0.00 0.00 0.00 75 998.9
20260505235004 50 303 3.5 6.1 0.00 0.00 0.00 75 998.8
20260505234803 50 308 3.5 6.1 0.00 0.00 0.00 75 998.8
20260505234603 50 318 4.3 7.0 0.00 0.00 0.00 75 998.8
20260505234404 50 322 4.3 7.0 0.00 0.00 0.00 75 998.9
20260505234204 50 322 4.3 7.0 0.00 0.00 0.00 75 998.9
20260505234003 50 339 4.3 7.0 0.00 0.00 0.00 75 998.9
20260505233603 50 12 4.3 9.6 0.00 0.00 0.00 75 999.0
20260505233404 50 18 4.3 9.6 0.00 0.00 0.00 75 999.0
20260505233203 50 13 4.3 9.6 0.00 0.00 0.00 75 998.9
20260505233003 50 359 5.2 9.6 0.00 0.00 0.00 75 999.1
20260505232804 50 346 5.2 9.6 0.00 0.00 0.00 74 999.0
20260505232604 50 328 4.3 7.0 0.00 0.00 0.00 74 999.0
20260505232203 51 322 3.5 7.0 0.00 0.00 0.00 75 999.1
20260505232004 51 325 3.5 7.0 0.00 0.00 0.00 75 999.0
20260505231804 51 333 3.5 7.0 0.00 0.00 0.00 75 999.0
20260505231403 51 345 3.5 5.2 0.00 0.00 0.00 75 998.9
20260505231203 51 341 3.5 5.2 0.00 0.00 0.00 75 999.1
20260505230804 51 352 2.6 5.2 0.00 0.00 0.00 75 999.2
20260505230604 51 340 2.6 5.2 0.00 0.00 0.00 75 999.1
20260505230403 51 350 2.6 3.5 0.00 0.00 0.00 74 999.1
20260505230203 51 2 1.7 3.5 0.00 0.00 0.00 74 999.2
20260505230005 51 331 1.7 3.5 0.00 0.00 0.00 74 999.3
20260505225803 51 340 1.7 2.6 0.00 0.00 0.00 74 999.2
20260505225603 51 297 1.7 1.7 0.00 0.00 0.00 74 999.3
20260505225404 51 307 1.7 2.6 0.00 0.00 0.00 74 999.3
20260505225003 51 25 1.7 3.5 0.00 0.00 0.00 74 999.3
20260505224803 51 36 2.6 3.5 0.00 0.00 0.00 74 999.2
20260505224404 51 54 2.6 3.5 0.00 0.00 0.00 74 999.2
20260505224204 51 96 2.6 3.5 0.00 0.00 0.00 74 999.4
20260505224004 51 144 2.6 3.5 0.00 0.00 0.00 74 999.1
20260505223803 51 117 2.6 3.5 0.00 0.00 0.00 74 999.4
20260505223603 51 143 2.6 4.3 0.00 0.00 0.00 74 999.4
20260505223404 51 155 2.6 4.3 0.00 0.00 0.00 74 999.2
20260505222803 51 343 2.6 4.3 0.00 0.00 0.00 74 999.3
20260505222603 51 333 2.6 4.3 0.00 0.00 0.00 74 999.5
20260505222404 51 335 3.5 9.6 0.00 0.00 0.00 74 999.5
20260505222203 51 313 3.5 9.6 0.00 0.00 0.00 74 999.5
20260505222003 51 303 3.5 9.6 0.00 0.00 0.00 74 999.4
20260505221803 51 307 3.5 9.6 0.00 0.00 0.00 74 999.4
20260505221604 51 307 3.5 9.6 0.00 0.00 0.00 74 999.5
20260505221403 51 320 3.5 9.6 0.00 0.00 0.00 74 999.6
20260505221203 51 336 2.6 4.3 0.00 0.00 0.00 74 999.4
20260505221004 51 333 3.5 6.1 0.00 0.00 0.00 74 999.3
20260505220804 52 339 3.5 6.1 0.00 0.00 0.00 74 999.6
20260505220603 52 346 3.5 6.1 0.00 0.00 0.00 74 999.4
20260505220403 52 356 3.5 6.1 0.00 0.00 0.00 73 999.5
20260505220204 52 15 3.5 6.1 0.00 0.00 0.00 73 999.3
20260505220003 52 16 2.6 6.1 0.00 0.00 0.00 73 999.4
20260505215803 52 9 2.6 4.3 0.00 0.00 0.00 73 999.4
20260505215604 52 345 2.6 4.3 0.00 0.00 0.00 73 999.3
20260505215404 52 355 2.6 4.3 0.00 0.00 0.00 73 999.2
20260505215003 52 8 3.5 5.2 0.00 0.00 0.00 73 999.3
20260505214803 52 351 3.5 5.2 0.00 0.00 0.00 73 999.3
20260505214604 52 10 3.5 5.2 0.00 0.00 0.00 73 999.3
20260505214404 52 2 2.6 5.2 0.00 0.00 0.00 73 999.3
20260505214203 52 329 3.5 6.1 0.00 0.00 0.00 73 999.1
20260505214003 52 324 3.5 6.1 0.00 0.00 0.00 74 999.2
20260505213604 52 280 3.5 6.1 0.00 0.00 0.00 74 999.2
20260505213404 52 301 4.3 7.8 0.00 0.00 0.00 75 999.2
20260505213203 53 327 3.5 7.8 0.00 0.00 0.00 75 999.2
20260505213004 53 7 4.3 7.8 0.00 0.00 0.00 76 999.2
20260505212804 53 3 4.3 7.8 0.00 0.00 0.00 77 999.2
20260505212603 53 2 3.5 7.8 0.00 0.00 0.00 78 999.1
20260505212405 53 16 3.5 4.3 0.00 0.00 0.00 78 999.1
20260505212005 53 11 2.6 3.5 0.00 0.00 0.00 79 999.1
20260505211805 53 30 1.7 3.5 0.00 0.00 0.00 79 999.2
20260505211605 53 33 1.7 3.5 0.00 0.00 0.00 79 999.2
20260505211204 53 44 0.9 2.6 0.00 0.00 0.00 79 999.0
20260505211005 53 341 0.9 2.6 0.00 0.00 0.00 80 999.0
20260505210805 53 284 0.9 2.6 0.00 0.00 0.00 80 999.2
20260505210605 53 264 0.9 2.6 0.00 0.00 0.00 80 999.0
20260505210405 53 145 0.9 1.7 0.00 0.00 0.00 80 998.9
20260505210205 53 160 0.9 1.7 0.00 0.00 0.00 80 999.0
20260505210005 53 149 0.9 1.7 0.00 0.00 0.00 80 999.0
20260505205805 53 118 1.7 1.7 0.00 0.00 0.00 80 998.8
20260505205605 53 108 1.7 1.7 0.00 0.00 0.00 80 998.9
20260505205205 53 105 1.7 1.7 0.00 0.00 0.00 80 999.0
20260505205006 53 59 0.9 1.7 0.00 0.00 0.00 80 998.9
20260505204805 53 327 0.9 1.7 0.00 0.00 0.00 80 998.8
20260505204605 53 328 0.9 1.7 0.00 0.00 0.00 80 999.0
20260505204405 53 248 0.9 1.7 0.00 0.00 0.00 80 999.0
20260505204005 53 318 0.9 1.7 0.00 0.00 0.00 80 998.9
20260505203805 53 85 1.7 1.7 0.00 0.00 0.00 80 998.9
20260505203605 53 28 1.7 1.7 0.00 0.00 0.00 80 998.9
20260505203205 53 53 1.7 2.6 0.00 0.00 0.00 79 998.9
20260505203005 53 51 1.7 2.6 0.00 0.00 0.00 79 999.0
20260505202805 53 56 1.7 2.6 0.00 0.00 0.00 79 998.9
20260505202605 53 70 1.7 3.5 0.00 0.00 0.00 78 998.9
20260505202405 53 77 1.7 3.5 0.00 0.00 0.00 78 998.8
20260505201805 53 81 2.6 3.5 0.00 0.00 0.00 77 998.8
20260505201405 54 82 1.7 2.6 0.00 0.00 0.00 75 998.8
20260505201005 54 88 1.7 2.6 0.00 0.00 0.00 74 998.7
20260505200605 54 45 2.6 3.5 0.00 0.00 0.00 73 998.9
20260505200405 54 65 2.6 3.5 0.00 0.00 0.00 72 998.8
20260505200205 54 355 2.6 3.5 0.00 0.00 0.00 70 998.7
20260505200005 54 350 3.5 7.0 0.00 0.00 0.00 70 998.7
20260505195805 55 343 3.5 7.0 0.00 0.00 0.00 69 998.8
20260505195605 55 183 3.5 7.0 0.00 0.00 0.00 69 998.7
20260505195405 55 310 3.5 7.0 0.00 0.00 0.00 68 998.7
20260505195205 55 83 3.5 7.0 0.00 0.00 0.00 68 998.7
20260505194605 55 69 3.5 4.3 0.00 0.00 0.00 67 998.4
20260505194405 55 53 3.5 4.3 0.00 0.00 0.00 67 998.5
20260505194205 55 35 3.5 4.3 0.00 0.00 0.00 67 998.5
20260505194005 55 31 2.6 4.3 0.00 0.00 0.00 66 998.4
20260505193805 55 35 2.6 4.3 0.00 0.00 0.00 65 998.4
20260505193605 56 38 1.7 4.3 0.00 0.00 0.00 65 998.5
20260505193205 56 73 0.9 2.6 0.00 0.00 0.00 65 998.4
20260505192805 56 74 0.0 1.7 0.00 0.00 0.00 64 998.4
20260505192605 56 316 0.9 1.7 0.00 0.00 0.00 64 998.3
20260505192405 56 331 0.9 1.7 0.00 0.00 0.00 64 998.2
20260505192205 56 331 0.9 1.7 0.00 0.00 0.00 64 998.1
20260505192005 56 313 0.9 1.7 0.00 0.00 0.00 64 998.3
20260505191804 56 342 0.9 2.6 0.00 0.00 0.00 64 998.0
20260505191605 56 17 0.9 2.6 0.00 0.00 0.00 64 998.0
20260505191405 56 25 0.9 2.6 0.00 0.00 0.00 63 998.1
20260505191205 56 25 0.9 2.6 0.00 0.00 0.00 63 998.0
20260505190805 56 81 0.9 1.7 0.00 0.00 0.00 63 998.1
20260505190605 56 74 0.9 1.7 0.00 0.00 0.00 63 998.0
20260505190205 56 69 0.9 1.7 0.00 0.00 0.00 63 997.9
20260505190005 56 84 0.9 1.7 0.00 0.00 0.00 63 998.0
20260505185805 56 77 0.0 1.7 0.00 0.00 0.00 63 997.9
20260505185405 56 97 0.0 1.7 0.00 0.00 0.00 63 997.9
20260505185005 56 55 0.0 1.7 0.00 0.00 0.00 63 997.8
20260505184805 56 48 0.0 1.7 0.00 0.00 0.00 63 997.9
20260505184605 56 48 0.0 1.7 0.00 0.00 0.00 63 997.9
20260505184205 56 338 0.0 1.7 0.00 0.00 0.00 63 997.7
20260505183805 56 314 0.0 1.7 0.00 0.00 0.00 62 997.7
20260505183605 56 314 0.0 1.7 0.00 0.00 0.00 62 997.8
20260505183405 56 314 0.0 1.7 0.00 0.00 0.00 62 997.7
20260505183205 56 135 0.0 0.9 0.00 0.00 0.00 62 997.8
20260505183005 56 0 0.0 0.0 0.00 0.00 0.00 62 997.7
20260505182805 56 0 0.0 0.0 0.00 0.00 0.00 61 997.7
20260505182605 57 0 0.0 0.0 0.00 0.00 0.00 61 997.7
20260505182405 57 0 0.0 0.0 0.00 0.00 0.00 61 997.9
20260505182004 57 0 0.0 0.0 0.00 0.00 0.00 61 997.7
20260505181805 57 28 0.0 0.9 0.00 0.00 0.00 61 997.7
20260505181404 57 40 0.0 0.9 0.00 0.00 0.00 60 997.7
20260505181005 57 40 0.0 0.9 0.00 0.00 0.00 60 997.5
20260505180805 57 56 0.0 0.9 0.00 0.00 0.00 60 997.8
20260505180605 57 78 0.0 0.9 0.00 0.00 0.00 60 997.7
20260505180404 57 0 0.0 0.0 0.00 0.00 0.00 60 997.6
20260505180205 57 0 0.0 0.0 0.00 0.00 0.00 60 997.6
20260505180005 57 0 0.0 0.0 0.00 0.00 0.00 60 997.7
20260505175805 57 0 0.0 0.0 0.00 0.00 0.00 60 997.7
20260505175405 57 31 0.0 1.7 0.00 0.00 0.00 60 997.6
20260505175205 57 35 0.0 1.7 0.00 0.00 0.00 60 997.7
20260505175005 57 35 0.0 1.7 0.00 0.00 0.00 60 997.7
20260505174804 58 1 0.0 1.7 0.00 0.00 0.00 59 997.6
20260505174605 58 9 0.9 1.7 0.00 0.00 0.00 59 997.6
20260505174005 58 341 0.9 1.7 0.00 0.00 0.00 58 997.6
20260505173605 58 334 0.0 1.7 0.00 0.00 0.00 58 997.6
20260505173405 58 311 0.0 1.7 0.00 0.00 0.00 58 997.6
20260505173204 58 181 0.0 0.9 0.00 0.00 0.00 58 997.6
20260505173005 58 0 0.0 0.0 0.00 0.00 0.00 58 997.7
20260505172805 58 157 0.0 0.9 0.00 0.00 0.00 58 997.5
20260505172605 58 157 0.0 0.9 0.00 0.00 0.00 58 997.4
20260505172405 58 157 0.0 0.9 0.00 0.00 0.00 58 997.7
20260505172005 58 10 0.9 2.6 0.00 0.00 0.00 57 997.5
20260505171805 58 18 0.9 2.6 0.00 0.00 0.00 57 997.6
20260505171604 59 27 0.9 2.6 0.00 0.00 0.00 56 997.7
20260505171405 59 27 0.9 2.6 0.00 0.00 0.00 56 997.7
20260505171205 59 35 0.9 2.6 0.00 0.00 0.00 56 997.7
20260505171005 59 61 0.9 2.6 0.00 0.00 0.00 56 997.7
20260505170804 59 143 0.9 1.7 0.00 0.00 0.00 56 997.7
20260505170605 59 183 0.9 1.7 0.00 0.00 0.00 57 997.7
20260505170405 59 183 0.9 1.7 0.00 0.00 0.00 57 997.8
20260505170205 59 189 0.9 1.7 0.00 0.00 0.00 56 997.8
20260505170005 60 193 0.9 1.7 0.00 0.00 0.00 55 997.8
20260505165805 60 170 0.9 1.7 0.00 0.00 0.00 55 997.8
20260505165405 60 59 0.9 1.7 0.00 0.00 0.00 55 997.8
20260505165205 60 82 0.9 1.7 0.00 0.00 0.00 55 997.7
20260505165005 60 11 0.9 1.7 0.00 0.00 0.00 55 997.7
20260505164804 60 5 0.9 1.7 0.00 0.00 0.00 54 997.7
20260505164405 61 185 0.9 1.7 0.00 0.00 0.00 54 997.7
20260505164205 61 184 0.9 1.7 0.00 0.00 0.00 54 997.7
20260505164005 61 184 0.9 1.7 0.00 0.00 0.00 53 997.8
20260505163605 62 186 0.9 1.7 0.00 0.00 0.00 54 997.7
20260505163205 62 141 0.0 0.9 0.00 0.00 0.00 54 997.7
20260505163005 62 175 0.9 3.5 0.00 0.00 0.00 54 997.7
20260505162605 62 181 0.9 3.5 0.00 0.00 0.00 54 997.7
20260505162405 62 178 0.9 3.5 0.00 0.00 0.00 54 997.7
20260505162205 62 177 0.9 3.5 0.00 0.00 0.00 53 997.8
20260505161605 62 177 0.9 1.7 0.00 0.00 0.00 53 997.8
20260505161404 62 181 0.9 1.7 0.00 0.00 0.00 53 997.6
20260505161005 62 192 0.9 3.5 0.00 0.00 0.00 54 997.6
20260505160805 61 223 0.9 3.5 0.00 0.00 0.00 54 997.7
20260505160405 61 189 1.7 3.5 0.00 0.00 0.00 53 997.7
20260505160205 61 203 0.9 3.5 0.00 0.00 0.00 53 997.7
20260505153205 64 296 0.9 1.7 0.00 0.00 0.00 48 997.7
20260505153005 64 303 0.9 1.7 0.00 0.00 0.00 47 997.7
20260505152805 64 318 1.7 5.2 0.00 0.00 0.00 46 997.7
20260505152604 63 323 2.6 5.2 0.00 0.00 0.00 48 997.6
20260505152405 63 331 2.6 5.2 0.00 0.00 0.00 47 997.6
20260505152204 64 343 3.5 5.2 0.00 0.00 0.00 42 997.5
20260505152005 64 356 3.5 5.2 0.00 0.00 0.00 41 997.6
20260505151805 64 25 3.5 5.2 0.00 0.00 0.00 41 997.6
20260505151604 64 103 2.6 3.5 0.00 0.00 0.00 42 997.8
20260505151405 64 117 2.6 3.5 0.00 0.00 0.00 42 997.7
20260505151205 64 128 1.7 3.5 0.00 0.00 0.00 42 997.7
20260505151004 64 140 1.7 3.5 0.00 0.00 0.00 42 997.7
20260505150804 64 131 1.7 2.6 0.00 0.00 0.00 43 997.7
20260505150605 64 117 1.7 2.6 0.00 0.00 0.00 42 997.7
20260505150405 64 132 1.7 2.6 0.00 0.00 0.00 42 997.7
20260505150205 64 108 2.6 3.5 0.00 0.00 0.00 42 997.6
20260505140605 64 336 3.5 4.3 0.00 0.00 0.00 41 998.0
20260505140404 65 345 2.6 4.3 0.00 0.00 0.00 42 997.8
20260505140204 65 340 1.7 4.3 0.00 0.00 0.00 41 998.0
20260505130205 65 61 2.6 3.5 0.00 0.00 0.00 43 998.4
20260505124804 65 353 2.6 6.1 0.00 0.00 0.00 43 998.4
20260505124605 65 355 2.6 6.1 0.00 0.00 0.00 42 998.3
20260505124405 65 7 2.6 6.1 0.00 0.00 0.00 41 998.3
20260505124205 66 10 2.6 6.1 0.00 0.00 0.00 41 998.4
20260505124004 66 5 2.6 4.3 0.00 0.00 0.00 42 998.3
20260505123804 66 76 1.7 4.3 0.00 0.00 0.00 42 998.4
20260505123605 66 12 1.7 3.5 0.00 0.00 0.00 43 998.3
20260505123404 66 359 1.7 3.5 0.00 0.00 0.00 42 998.4
20260505123205 66 351 1.7 3.5 0.00 0.00 0.00 43 998.4
20260505123005 65 17 0.9 2.6 0.00 0.00 0.00 44 998.4
20260505122804 65 342 1.7 6.1 0.00 0.00 0.00 44 998.4
20260505122604 65 349 2.6 6.1 0.00 0.00 0.00 44 998.4
20260505122405 65 343 3.5 6.1 0.00 0.00 0.00 43 998.4
20260505122205 65 338 3.5 6.1 0.00 0.00 0.00 41 998.3
20260505122004 65 341 3.5 6.1 0.00 0.00 0.00 41 998.4
20260505121804 65 336 2.6 5.2 0.00 0.00 0.00 41 998.3
20260505121605 65 214 2.6 4.3 0.00 0.00 0.00 43 998.4
20260505121205 64 79 2.6 4.3 0.00 0.00 0.00 44 998.2
20260505121004 64 75 2.6 4.3 0.00 0.00 0.00 43 998.4
20260505120804 64 68 2.6 4.3 0.00 0.00 0.00 42 998.3
20260505120605 64 11 2.6 5.2 0.00 0.00 0.00 42 998.5
20260505120204 64 355 3.5 7.0 0.00 0.00 0.00 42 998.4
20260505120005 64 348 4.3 7.0 0.00 0.00 0.00 41 998.3
20260505115805 64 344 5.2 7.0 0.00 0.00 0.00 40 998.4
20260505115604 64 346 4.3 7.0 0.00 0.00 0.00 40 998.4
20260505115404 64 337 4.3 7.0 0.00 0.00 0.00 40 998.3
20260505115204 64 334 4.3 7.0 0.00 0.00 0.00 41 998.3
20260505115005 64 342 3.5 7.0 0.00 0.00 0.00 41 998.5
20260505114805 64 353 3.5 7.0 0.00 0.00 0.00 42 998.4
20260505114604 64 336 3.5 7.0 0.00 0.00 0.00 41 998.5
20260505114404 64 350 3.5 4.3 0.00 0.00 0.00 42 998.5
20260505114205 64 355 2.6 4.3 0.00 0.00 0.00 41 998.5
20260505114005 64 9 2.6 7.0 0.00 0.00 0.00 40 998.5
20260505113804 65 23 2.6 7.0 0.00 0.00 0.00 40 998.5
20260505113604 65 54 2.6 7.0 0.00 0.00 0.00 41 998.5
20260505113205 65 76 2.6 7.0 0.00 0.00 0.00 41 998.5
20260505112804 65 66 1.7 2.6 0.00 0.00 0.00 43 998.6
20260505112604 65 100 2.6 3.5 0.00 0.00 0.00 42 998.6
20260505112405 65 106 2.6 3.5 0.00 0.00 0.00 42 998.6
20260505112205 65 86 2.6 3.5 0.00 0.00 0.00 44 998.5
20260505111804 64 94 3.5 3.5 0.00 0.00 0.00 44 998.8
20260505111604 64 105 3.5 3.5 0.00 0.00 0.00 44 998.7
20260505111405 63 76 3.5 9.6 0.00 0.00 0.00 49 998.7
20260505111205 63 21 5.2 9.6 0.00 0.00 0.00 48 998.7
20260505111004 63 9 5.2 9.6 0.00 0.00 0.00 48 998.8
20260505110604 63 15 5.2 9.6 0.00 0.00 0.00 47 998.7
20260505110405 63 13 4.3 9.6 0.00 0.00 0.00 46 998.8
20260505110205 64 93 3.5 7.8 0.00 0.00 0.00 46 998.8
20260505102205 60 343 5.2 7.8 0.00 0.00 0.00 59 998.8
20260505101804 60 338 4.3 7.8 0.00 0.00 0.00 60 998.9
20260505101604 60 341 4.3 6.1 0.00 0.00 0.00 60 999.0
20260505101405 60 339 5.2 7.8 0.00 0.00 0.00 60 998.9
20260505101204 60 336 5.2 7.8 0.00 0.00 0.00 60 998.9
20260505101004 60 337 6.1 7.8 0.00 0.00 0.00 61 998.9
20260505100605 59 329 7.0 9.6 0.00 0.00 0.00 60 999.0
20260505100404 60 333 7.0 9.6 0.00 0.00 0.00 60 999.1
20260505095804 60 337 6.1 9.6 0.00 0.00 0.00 59 999.0
20260505095605 60 348 5.2 9.6 0.00 0.00 0.00 60 999.1
20260505095405 60 339 4.3 7.0 0.00 0.00 0.00 60 999.0
20260505095004 60 326 5.2 7.0 0.00 0.00 0.00 60 999.0
20260505094804 60 323 4.3 7.0 0.00 0.00 0.00 60 999.0
20260505094405 61 344 5.2 7.0 0.00 0.00 0.00 58 999.0
20260505094004 61 66 4.3 7.0 0.00 0.00 0.00 60 999.1
20260505093805 61 90 4.3 7.0 0.00 0.00 0.00 60 998.9
20260505093404 62 43 3.5 6.1 0.00 0.00 0.00 60 999.1
20260505093004 62 20 2.6 5.2 0.00 0.00 0.00 61 999.0
20260505092805 62 42 2.6 4.3 0.00 0.00 0.00 61 999.1
20260505092605 62 48 2.6 4.3 0.00 0.00 0.00 61 998.9
20260505092404 62 42 2.6 3.5 0.00 0.00 0.00 61 999.2
20260505092204 62 60 2.6 3.5 0.00 0.00 0.00 61 999.0
20260505092005 62 60 3.5 3.5 0.00 0.00 0.00 61 999.1
20260505091804 62 47 3.5 5.2 0.00 0.00 0.00 62 999.1
20260505091604 61 69 3.5 5.2 0.00 0.00 0.00 63 999.0
20260505091405 61 50 3.5 5.2 0.00 0.00 0.00 62 999.0
20260505091204 61 31 3.5 5.2 0.00 0.00 0.00 62 998.9
20260505091004 60 20 3.5 7.0 0.00 0.00 0.00 62 999.1
20260505090804 60 41 3.5 7.0 0.00 0.00 0.00 62 999.0
20260505090205 60 7 3.5 7.0 0.00 0.00 0.00 62 999.1
20260505090005 60 22 2.6 4.3 0.00 0.00 0.00 63 998.9
20260505085805 60 14 2.6 4.3 0.00 0.00 0.00 64 999.0
20260505085605 60 351 2.6 4.3 0.00 0.00 0.00 64 999.0
20260505085404 59 302 2.6 3.5 0.00 0.00 0.00 64 999.0
20260505085204 59 264 2.6 4.3 0.00 0.00 0.00 63 999.0
20260505085005 59 320 3.5 6.1 0.00 0.00 0.00 63 999.1
20260505084805 59 331 3.5 6.1 0.00 0.00 0.00 63 999.1
20260505084605 59 356 3.5 6.1 0.00 0.00 0.00 63 999.2
20260505084404 59 12 4.3 6.1 0.00 0.00 0.00 63 999.1
20260505084204 60 23 3.5 6.1 0.00 0.00 0.00 63 999.1
20260505084005 60 32 3.5 5.2 0.00 0.00 0.00 63 999.2
20260505083805 60 47 3.5 5.2 0.00 0.00 0.00 64 999.0
20260505083404 59 151 2.6 3.5 0.00 0.00 0.00 68 999.0
20260505083204 59 202 2.6 3.5 0.00 0.00 0.00 69 999.1
20260505083005 58 214 2.6 3.5 0.00 0.00 0.00 70 999.0
20260505082804 58 270 2.6 3.5 0.00 0.00 0.00 69 999.1
20260505082604 57 274 3.5 6.1 0.00 0.00 0.00 68 998.9
20260505082405 57 315 3.5 6.1 0.00 0.00 0.00 68 998.9
20260505082204 57 338 3.5 6.1 0.00 0.00 0.00 67 998.9
20260505082004 57 341 4.3 6.1 0.00 0.00 0.00 67 999.0
20260505081804 57 341 4.3 6.1 0.00 0.00 0.00 67 999.1
20260505081604 57 349 3.5 6.1 0.00 0.00 0.00 68 998.9
20260505081404 57 336 4.3 6.1 0.00 0.00 0.00 69 999.1
20260505081204 56 358 4.3 6.1 0.00 0.00 0.00 69 999.0
20260505081005 56 352 4.3 7.8 0.00 0.00 0.00 69 998.9
20260505080804 56 347 5.2 7.8 0.00 0.00 0.00 70 999.2
20260505080604 56 336 5.2 7.8 0.00 0.00 0.00 70 999.0
20260505080404 56 350 4.3 7.8 0.00 0.00 0.00 70 999.0
20260505080204 56 351 4.3 7.8 0.00 0.00 0.00 70 999.0
20260505080005 56 340 4.3 7.0 0.00 0.00 0.00 70 998.9
20260505075804 55 339 4.3 7.0 0.00 0.00 0.00 70 999.1
20260505075604 55 345 3.5 7.0 0.00 0.00 0.00 71 999.1
20260505075405 55 345 3.5 7.0 0.00 0.00 0.00 71 999.0
20260505075205 55 347 3.5 7.0 0.00 0.00 0.00 71 999.1
20260505075004 55 10 2.6 3.5 0.00 0.00 0.00 72 999.1
20260505074804 55 357 3.5 5.2 0.00 0.00 0.00 71 999.2
20260505074604 55 2 3.5 5.2 0.00 0.00 0.00 71 999.0
20260505074404 55 346 3.5 5.2 0.00 0.00 0.00 71 999.0
20260505074205 55 335 3.5 5.2 0.00 0.00 0.00 72 999.1
20260505074004 55 325 3.5 5.2 0.00 0.00 0.00 72 999.0
20260505073804 55 314 2.6 4.3 0.00 0.00 0.00 72 999.0
20260505073604 55 307 2.6 4.3 0.00 0.00 0.00 72 999.2
20260505073205 54 328 3.5 7.0 0.00 0.00 0.00 72 999.0
20260505073004 54 324 4.3 7.0 0.00 0.00 0.00 75 999.1
20260505072804 54 321 5.2 7.0 0.00 0.00 0.00 74 999.1
20260505072604 54 321 5.2 7.0 0.00 0.00 0.00 74 999.0
20260505072405 54 328 5.2 7.0 0.00 0.00 0.00 74 999.0
20260505072204 54 325 4.3 6.1 0.00 0.00 0.00 74 999.0
20260505072004 54 332 4.3 6.1 0.00 0.00 0.00 74 999.1
20260505071805 54 338 4.3 4.3 0.00 0.00 0.00 72 999.0
20260505071605 54 336 4.3 7.0 0.00 0.00 0.00 72 999.1
20260505071204 54 355 3.5 7.0 0.00 0.00 0.00 72 999.2
20260505071005 54 348 3.5 7.0 0.00 0.00 0.00 76 999.0
20260505070804 54 2 3.5 7.0 0.00 0.00 0.00 77 999.1
20260505070604 54 23 3.5 7.8 0.00 0.00 0.00 77 999.2
20260505070404 54 18 3.5 7.8 0.00 0.00 0.00 78 999.1
20260505070205 54 4 3.5 7.8 0.00 0.00 0.00 78 999.1
20260505070005 54 16 2.6 7.8 0.00 0.00 0.00 78 999.2
20260505065804 54 14 2.6 7.8 0.00 0.00 0.00 79 999.1
20260505065604 54 347 1.7 3.5 0.00 0.00 0.00 80 999.1
20260505065405 53 312 1.7 3.5 0.00 0.00 0.00 80 999.0
20260505065204 53 283 1.7 3.5 0.00 0.00 0.00 80 999.3
20260505065004 53 309 2.6 5.2 0.00 0.00 0.00 80 999.2
20260505064604 53 342 3.5 5.2 0.00 0.00 0.00 80 999.1
20260505064405 53 351 3.5 5.2 0.00 0.00 0.00 80 999.4
20260505064004 53 359 3.5 5.2 0.00 0.00 0.00 81 999.3
20260505063804 53 5 2.6 3.5 0.00 0.00 0.00 81 999.2
20260505063605 53 7 3.5 4.3 0.00 0.00 0.00 81 999.1
20260505063404 53 353 3.5 4.3 0.00 0.00 0.00 82 999.3
20260505063204 53 354 2.6 4.3 0.00 0.00 0.00 82 999.3
20260505062805 53 348 2.6 4.3 0.00 0.00 0.00 83 999.2
20260505062404 53 337 0.9 3.5 0.00 0.00 0.00 84 999.3
20260505062004 53 323 0.9 1.7 0.00 0.00 0.00 84 999.2
20260505061805 53 331 0.9 1.7 0.00 0.00 0.00 84 999.2
20260505061604 52 342 0.9 2.6 0.00 0.00 0.00 84 999.2
20260505061404 52 351 0.9 2.6 0.00 0.00 0.00 84 999.2
20260505061204 52 350 0.9 2.6 0.00 0.00 0.00 84 999.2
20260505061005 52 349 0.9 2.6 0.00 0.00 0.00 84 999.2
20260505060804 52 350 0.9 2.6 0.00 0.00 0.00 85 999.2
20260505060604 52 43 0.9 2.6 0.00 0.00 0.00 85 999.2
20260505060005 52 85 0.9 1.7 0.00 0.00 0.00 85 999.3
20260505055804 52 95 0.9 1.7 0.00 0.00 0.00 85 999.3